QPF
0.00 0.00 0.00 0.00 0.00 0.00 0.00 0.00 0.01 0.03 0.02 0.01 0.02 0.02 0.03 0.04 0.04 0.02 0.01 0.01 0.01 0.01 0.01 0.02 0.01 0.02 0.02 0.03 0.02 0.03 0.03 0.04 0.04 0.04 0.04 0.04 0.04 0.03 0.04 0.04 0.03 0.04 0.04 0.03
0.00 0.00 0.00 0.00 0.00 0.00 0.00 0.00 0.01 0.02 0.02 0.01 0.01 0.02 0.02 0.03 0.03 0.01 0.01 0.01 0.01 0.01 0.01 0.01 0.01 0.01 0.02 0.03 0.03 0.02 0.02 0.02 0.02 0.02 0.03 0.03 0.03 0.03 0.03 0.03 0.03 0.04 0.05 0.05
0.00 0.00 0.00 0.00 0.01 0.01 0.01 0.00 0.00 0.01 0.02 0.02 0.02 0.01 0.01 0.01 0.01 0.00 0.00 0.00 0.00 0.00 0.00 0.01 0.01 0.01 0.01 0.01 0.02 0.02 0.02 0.03 0.02 0.01 0.02 0.03 0.03 0.04 0.04 0.04 0.04 0.04 0.05 0.06
0.00 0.01 0.01 0.01 0.00 0.00 0.00 0.00 0.00 0.00 0.01 0.01 0.02 0.01 0.01 0.01 0.01 0.00 0.00 0.00 0.00 0.00 0.01 0.01 0.01 0.01 0.01 0.01 0.01 0.01 0.01 0.02 0.02 0.02 0.02 0.03 0.04 0.05 0.04 0.04 0.05 0.05 0.04 0.05
0.00 0.01 0.01 0.01 0.00 0.00 0.01 0.00 0.00 0.00 0.00 0.01 0.02 0.02 0.03 0.02 0.01 0.00 0.00 0.00 0.00 0.00 0.01 0.02 0.02 0.02 0.02 0.01 0.01 0.01 0.01 0.00 0.01 0.01 0.02 0.02 0.03 0.03 0.04 0.04 0.04 0.04 0.04 0.05
0.00 0.01 0.01 0.01 0.01 0.01 0.01 0.01 0.00 0.00 0.00 0.01 0.02 0.05 0.07 0.06 0.02 0.00 0.00 0.00 0.00 0.01 0.01 0.01 0.01 0.02 0.02 0.02 0.02 0.02 0.02 0.01 0.01 0.01 0.01 0.02 0.03 0.03 0.04 0.05 0.05 0.04 0.05 0.05
0.01 0.01 0.00 0.01 0.02 0.01 0.02 0.02 0.00 0.00 0.00 0.01 0.03 0.02 0.02 0.02 0.01 0.00 0.00 0.00 0.01 0.01 0.01 0.01 0.01 0.02 0.02 0.03 0.03 0.04 0.04 0.04 0.03 0.02 0.02 0.02 0.02 0.03 0.03 0.04 0.05 0.04 0.05 0.05
0.02 0.02 0.02 0.00 0.01 0.02 0.02 0.01 0.01 0.01 0.01 0.00 0.00 0.00 0.00 0.00 0.00 0.00 0.01 0.01 0.01 0.00 0.01 0.01 0.01 0.01 0.02 0.03 0.04 0.05 0.05 0.05 0.05 0.03 0.02 0.01 0.02 0.03 0.03 0.04 0.04 0.05 0.05 0.03
0.02 0.02 0.02 0.01 0.02 0.02 0.03 0.03 0.02 0.01 0.01 0.01 0.01 0.00 0.01 0.01 0.01 0.01 0.01 0.01 0.01 0.01 0.01 0.01 0.01 0.01 0.02 0.03 0.03 0.03 0.03 0.05 0.05 0.04 0.03 0.03 0.02 0.03 0.04 0.05 0.04 0.04 0.05 0.04
0.03 0.02 0.02 0.02 0.03 0.02 0.03 0.03 0.02 0.01 0.00 0.00 0.00 0.01 0.01 0.01 0.02 0.01 0.01 0.01 0.01 0.01 0.01 0.01 0.01 0.02 0.02 0.02 0.03 0.02 0.02 0.03 0.03 0.03 0.03 0.03 0.03 0.03 0.03 0.04 0.04 0.04 0.04 0.04
0.03 0.03 0.02 0.02 0.03 0.03 0.02 0.02 0.01 0.00 0.00 0.00 0.00 0.01 0.01 0.02 0.03 0.03 0.01 0.01 0.01 0.01 0.01 0.01 0.01 0.02 0.03 0.03 0.03 0.03 0.03 0.03 0.03 0.02 0.02 0.03 0.03 0.02 0.02 0.03 0.03 0.02 0.03 0.04
0.05 0.04 0.02 0.02 0.02 0.04 0.03 0.02 0.01 0.00 0.01 0.00 0.00 0.00 0.01 0.02 0.03 0.03 0.02 0.01 0.01 0.01 0.01 0.01 0.01 0.02 0.02 0.02 0.03 0.03 0.03 0.03 0.02 0.02 0.02 0.02 0.03 0.03 0.03 0.03 0.02 0.02 0.03 0.04
0.04 0.05 0.03 0.01 0.01 0.02 0.02 0.02 0.01 0.01 0.01 0.01 0.01 0.00 0.01 0.01 0.02 0.03 0.02 0.01 0.01 0.01 0.00 0.00 0.02 0.03 0.02 0.03 0.03 0.03 0.02 0.02 0.02 0.02 0.02 0.03 0.04 0.04 0.04 0.03 0.03 0.03 0.03 0.03
0.04 0.03 0.04 0.04 0.02 0.01 0.01 0.02 0.02 0.01 0.01 0.01 0.01 0.01 0.01 0.01 0.01 0.02 0.02 0.02 0.02 0.01 0.01 0.02 0.03 0.02 0.02 0.02 0.02 0.02 0.01 0.02 0.02 0.03 0.04 0.06 0.07 0.07 0.05 0.03 0.03 0.03 0.03 0.04
0.03 0.02 0.01 0.01 0.03 0.01 0.01 0.02 0.02 0.01 0.01 0.00 0.01 0.01 0.02 0.03 0.04 0.05 0.05 0.04 0.03 0.02 0.02 0.03 0.02 0.02 0.01 0.01 0.01 0.02 0.02 0.02 0.03 0.04 0.06 0.06 0.06 0.05 0.04 0.04 0.05 0.04 0.05 0.06
0.01 0.01 0.02 0.02 0.02 0.02 0.02 0.02 0.03 0.03 0.02 0.01 0.02 0.03 0.03 0.04 0.05 0.08 0.09 0.07 0.06 0.04 0.03 0.02 0.02 0.02 0.01 0.01 0.02 0.03 0.03 0.03 0.04 0.07 0.08 0.07 0.05 0.05 0.05 0.06 0.06 0.07 0.07 0.07
0.02 0.02 0.02 0.02 0.02 0.02 0.02 0.01 0.02 0.02 0.02 0.02 0.02 0.02 0.02 0.03 0.04 0.04 0.06 0.08 0.06 0.04 0.02 0.02 0.02 0.02 0.02 0.02 0.03 0.03 0.02 0.03 0.04 0.05 0.06 0.05 0.05 0.06 0.08 0.11 0.13 0.12 0.11 0.09
0.03 0.03 0.02 0.02 0.02 0.02 0.01 0.01 0.01 0.02 0.03 0.03 0.03 0.02 0.03 0.03 0.04 0.03 0.03 0.03 0.04 0.04 0.03 0.02 0.01 0.01 0.02 0.02 0.02 0.03 0.02 0.02 0.03 0.03 0.04 0.05 0.05 0.05 0.05 0.07 0.08 0.10 0.11 0.09
0.03 0.02 0.01 0.01 0.01 0.01 0.01 0.01 0.01 0.02 0.02 0.03 0.04 0.03 0.03 0.03 0.02 0.02 0.03 0.04 0.06 0.06 0.03 0.01 0.01 0.01 0.01 0.01 0.01 0.02 0.02 0.02 0.01 0.01 0.02 0.04 0.04 0.04 0.05 0.06 0.07 0.08 0.08 0.06
0.02 0.02 0.01 0.01 0.01 0.01 0.02 0.01 0.01 0.03 0.05 0.06 0.04 0.03 0.03 0.02 0.02 0.03 0.04 0.05 0.04 0.03 0.02 0.02 0.01 0.01 0.01 0.01 0.01 0.01 0.02 0.02 0.01 0.01 0.01 0.02 0.03 0.04 0.05 0.07 0.08 0.09 0.07 0.05
0.01 0.01 0.01 0.01 0.02 0.02 0.01 0.01 0.02 0.04 0.04 0.05 0.05 0.04 0.03 0.03 0.03 0.04 0.04 0.04 0.03 0.02 0.02 0.03 0.03 0.02 0.02 0.02 0.01 0.01 0.02 0.03 0.02 0.02 0.02 0.03 0.03 0.04 0.05 0.06 0.06 0.06 0.05 0.05
0.02 0.02 0.02 0.02 0.03 0.03 0.03 0.04 0.04 0.04 0.05 0.04 0.03 0.03 0.04 0.05 0.04 0.03 0.03 0.02 0.01 0.01 0.01 0.01 0.01 0.02 0.02 0.02 0.01 0.01 0.01 0.02 0.02 0.02 0.03 0.03 0.04 0.05 0.04 0.04 0.04 0.04 0.04 0.04
0.03 0.03 0.03 0.03 0.04 0.04 0.05 0.05 0.06 0.07 0.05 0.05 0.05 0.06 0.05 0.05 0.04 0.03 0.01 0.01 0.01 0.02 0.01 0.01 0.03 0.02 0.02 0.01 0.01 0.01 0.01 0.01 0.01 0.02 0.03 0.03 0.03 0.03 0.03 0.03 0.03 0.03 0.03 0.04
0.04 0.03 0.04 0.04 0.04 0.06 0.07 0.07 0.08 0.08 0.06 0.06 0.06 0.05 0.05 0.04 0.03 0.02 0.02 0.02 0.02 0.02 0.01 0.02 0.03 0.03 0.03 0.01 0.01 0.01 0.01 0.02 0.02 0.02 0.02 0.02 0.02 0.02 0.02 0.02 0.02 0.03 0.03 0.02
0.04 0.05 0.06 0.05 0.05 0.06 0.07 0.07 0.07 0.07 0.07 0.05 0.04 0.04 0.04 0.04 0.03 0.03 0.03 0.03 0.03 0.03 0.02 0.03 0.04 0.03 0.02 0.02 0.02 0.02 0.02 0.02 0.02 0.02 0.02 0.02 0.02 0.02 0.01 0.02 0.02 0.02 0.02 0.02
0.05 0.06 0.07 0.06 0.05 0.05 0.04 0.05 0.05 0.05 0.06 0.05 0.05 0.04 0.04 0.04 0.04 0.05 0.04 0.03 0.03 0.03 0.03 0.04 0.04 0.03 0.02 0.02 0.03 0.03 0.03 0.03 0.03 0.02 0.02 0.01 0.01 0.02 0.02 0.02 0.01 0.02 0.02 0.02
0.04 0.04 0.05 0.06 0.05 0.03 0.03 0.04 0.05 0.05 0.06 0.05 0.04 0.04 0.04 0.04 0.05 0.05 0.05 0.04 0.04 0.03 0.04 0.04 0.03 0.03 0.03 0.03 0.03 0.03 0.03 0.03 0.03 0.03 0.02 0.02 0.02 0.03 0.02 0.02 0.02 0.02 0.02 0.02
MSLP
1000.47 1000.95 1001.44 1001.89 1002.27 1002.52 1002.62 1002.56 1002.33 1001.94 1001.45 1000.89 1000.34 999.86 999.50 999.32 999.33 999.54 999.92 1000.44 1001.07 1001.74 1002.43 1003.10 1003.72 1004.29 1004.79 1005.24 1005.64 1006.00 1006.34 1006.65 1006.94 1007.21 1007.46 1007.68 1007.86 1007.98 1008.02 1007.97 1007.81 1007.52 1007.11 1006.57
1000.57 1000.95 1001.29 1001.55 1001.71 1001.74 1001.66 1001.45 1001.13 1000.74 1000.32 999.90 999.53 999.26 999.11 999.12 999.30 999.63 1000.10 1000.69 1001.36 1002.08 1002.80 1003.50 1004.16 1004.76 1005.29 1005.75 1006.15 1006.49 1006.78 1007.05 1007.29 1007.52 1007.73 1007.93 1008.09 1008.21 1008.25 1008.19 1008.01 1007.69 1007.22 1006.61
1000.69 1000.97 1001.17 1001.26 1001.24 1001.10 1000.85 1000.51 1000.12 999.72 999.33 999.01 998.78 998.66 998.68 998.84 999.15 999.59 1000.15 1000.81 1001.53 1002.29 1003.05 1003.80 1004.50 1005.14 1005.70 1006.18 1006.59 1006.92 1007.19 1007.42 1007.62 1007.81 1008.00 1008.17 1008.32 1008.42 1008.45 1008.39 1008.19 1007.84 1007.33 1006.66
1000.72 1000.89 1000.98 1000.95 1000.80 1000.53 1000.17 999.75 999.31 998.89 998.54 998.28 998.15 998.15 998.29 998.57 998.98 999.51 1000.14 1000.85 1001.62 1002.42 1003.23 1004.01 1004.75 1005.43 1006.03 1006.53 1006.94 1007.26 1007.52 1007.73 1007.90 1008.06 1008.22 1008.38 1008.52 1008.62 1008.65 1008.58 1008.38 1008.02 1007.49 1006.79
1000.58 1000.65 1000.65 1000.54 1000.32 999.99 999.58 999.13 998.68 998.28 997.97 997.77 997.71 997.79 998.02 998.38 998.87 999.47 1000.16 1000.92 1001.73 1002.56 1003.40 1004.21 1004.98 1005.67 1006.28 1006.79 1007.20 1007.52 1007.77 1007.96 1008.12 1008.27 1008.42 1008.57 1008.71 1008.82 1008.87 1008.82 1008.63 1008.29 1007.77 1007.08
1000.25 1000.23 1000.16 1000.02 999.77 999.44 999.05 998.63 998.22 997.87 997.61 997.48 997.49 997.64 997.94 998.38 998.93 999.58 1000.31 1001.10 1001.93 1002.78 1003.62 1004.44 1005.21 1005.90 1006.50 1007.00 1007.40 1007.71 1007.95 1008.13 1008.28 1008.43 1008.59 1008.75 1008.91 1009.05 1009.13 1009.11 1008.97 1008.67 1008.20 1007.55
999.77 999.67 999.56 999.41 999.19 998.92 998.59 998.25 997.92 997.65 997.47 997.42 997.50 997.72 998.09 998.58 999.17 999.86 1000.62 1001.43 1002.27 1003.11 1003.94 1004.74 1005.47 1006.13 1006.70 1007.18 1007.55 1007.85 1008.07 1008.26 1008.42 1008.58 1008.76 1008.95 1009.14 1009.32 1009.44 1009.48 1009.40 1009.17 1008.78 1008.22
999.26 999.07 998.93 998.80 998.64 998.45 998.22 997.99 997.77 997.60 997.52 997.55 997.71 998.00 998.43 998.97 999.61 1000.32 1001.10 1001.91 1002.74 1003.56 1004.35 1005.10 1005.78 1006.39 1006.91 1007.34 1007.68 1007.96 1008.18 1008.37 1008.55 1008.73 1008.94 1009.17 1009.41 1009.63 1009.81 1009.91 1009.90 1009.76 1009.46 1009.01
998.82 998.57 998.41 998.30 998.20 998.10 997.98 997.86 997.76 997.70 997.71 997.83 998.06 998.42 998.90 999.48 1000.15 1000.89 1001.68 1002.48 1003.29 1004.07 1004.81 1005.49 1006.11 1006.65 1007.11 1007.49 1007.80 1008.06 1008.27 1008.48 1008.68 1008.90 1009.14 1009.41 1009.69 1009.96 1010.20 1010.36 1010.42 1010.37 1010.17 1009.84
998.55 998.24 998.07 997.99 997.95 997.92 997.90 997.87 997.87 997.90 997.99 998.18 998.47 998.88 999.41 1000.03 1000.73 1001.48 1002.27 1003.07 1003.84 1004.58 1005.27 1005.89 1006.43 1006.91 1007.30 1007.64 1007.92 1008.16 1008.38 1008.59 1008.82 1009.07 1009.35 1009.66 1009.98 1010.28 1010.56 1010.77 1010.90 1010.92 1010.82 1010.60
998.50 998.16 997.98 997.91 997.91 997.94 997.97 998.01 998.06 998.15 998.30 998.53 998.87 999.32 999.87 1000.52 1001.24 1002.01 1002.80 1003.59 1004.34 1005.04 1005.67 1006.23 1006.72 1007.13 1007.48 1007.77 1008.03 1008.26 1008.48 1008.72 1008.97 1009.25 1009.55 1009.88 1010.22 1010.55 1010.85 1011.09 1011.26 1011.34 1011.31 1011.19
998.63 998.29 998.12 998.06 998.08 998.12 998.18 998.24 998.31 998.42 998.59 998.84 999.19 999.65 1000.23 1000.89 1001.63 1002.41 1003.21 1003.99 1004.72 1005.39 1005.99 1006.51 1006.95 1007.32 1007.63 1007.90 1008.13 1008.36 1008.59 1008.84 1009.11 1009.40 1009.73 1010.06 1010.40 1010.73 1011.03 1011.29 1011.47 1011.59 1011.62 1011.56
998.87 998.56 998.41 998.36 998.38 998.42 998.47 998.51 998.58 998.67 998.83 999.07 999.42 999.89 1000.47 1001.14 1001.89 1002.69 1003.49 1004.27 1004.99 1005.65 1006.23 1006.72 1007.13 1007.47 1007.76 1008.01 1008.24 1008.46 1008.70 1008.95 1009.23 1009.53 1009.85 1010.18 1010.51 1010.82 1011.11 1011.35 1011.54 1011.67 1011.73 1011.72
999.13 998.88 998.77 998.74 998.74 998.76 998.78 998.80 998.82 998.89 999.02 999.24 999.58 1000.04 1000.62 1001.30 1002.06 1002.86 1003.67 1004.45 1005.17 1005.83 1006.39 1006.87 1007.26 1007.59 1007.86 1008.10 1008.33 1008.55 1008.79 1009.04 1009.32 1009.61 1009.91 1010.22 1010.53 1010.82 1011.09 1011.31 1011.50 1011.63 1011.71 1011.74
999.32 999.17 999.10 999.09 999.09 999.09 999.07 999.05 999.04 999.07 999.18 999.38 999.71 1000.16 1000.74 1001.42 1002.18 1002.98 1003.79 1004.58 1005.30 1005.95 1006.51 1006.98 1007.36 1007.68 1007.95 1008.19 1008.41 1008.63 1008.86 1009.10 1009.36 1009.64 1009.93 1010.21 1010.49 1010.76 1011.00 1011.21 1011.39 1011.53 1011.63 1011.68
999.42 999.36 999.35 999.36 999.37 999.35 999.31 999.26 999.23 999.24 999.32 999.52 999.84 1000.29 1000.86 1001.54 1002.30 1003.10 1003.90 1004.68 1005.40 1006.04 1006.59 1007.05 1007.44 1007.75 1008.01 1008.24 1008.46 1008.67 1008.89 1009.12 1009.36 1009.62 1009.89 1010.15 1010.42 1010.66 1010.89 1011.10 1011.28 1011.43 1011.55 1011.63
999.42 999.45 999.49 999.53 999.54 999.52 999.47 999.41 999.37 999.38 999.47 999.66 999.99 1000.44 1001.01 1001.69 1002.43 1003.22 1004.01 1004.77 1005.47 1006.09 1006.64 1007.09 1007.47 1007.78 1008.03 1008.26 1008.47 1008.67 1008.88 1009.09 1009.32 1009.56 1009.81 1010.06 1010.32 1010.56 1010.79 1011.01 1011.20 1011.37 1011.52 1011.63
999.35 999.44 999.52 999.57 999.59 999.57 999.53 999.48 999.46 999.49 999.60 999.82 1000.15 1000.61 1001.18 1001.84 1002.57 1003.33 1004.09 1004.82 1005.49 1006.09 1006.62 1007.06 1007.43 1007.73 1007.99 1008.21 1008.42 1008.61 1008.81 1009.02 1009.23 1009.46 1009.70 1009.95 1010.20 1010.46 1010.70 1010.94 1011.16 1011.37 1011.54 1011.69
999.24 999.35 999.44 999.49 999.51 999.50 999.47 999.45 999.46 999.53 999.68 999.93 1000.29 1000.75 1001.32 1001.96 1002.65 1003.37 1004.09 1004.78 1005.42 1005.99 1006.50 1006.93 1007.30 1007.61 1007.87 1008.09 1008.30 1008.50 1008.69 1008.89 1009.10 1009.32 1009.56 1009.81 1010.08 1010.34 1010.62 1010.88 1011.14 1011.38 1011.59 1011.77
999.11 999.19 999.26 999.29 999.31 999.30 999.29 999.31 999.36 999.47 999.67 999.95 1000.33 1000.80 1001.35 1001.97 1002.63 1003.30 1003.97 1004.61 1005.22 1005.77 1006.26 1006.68 1007.06 1007.38 1007.65 1007.89 1008.11 1008.32 1008.51 1008.71 1008.92 1009.14 1009.38 1009.64 1009.91 1010.20 1010.49 1010.79 1011.08 1011.34 1011.59 1011.80
998.95 998.97 998.98 998.98 998.97 998.97 998.98 999.03 999.13 999.29 999.53 999.85 1000.24 1000.72 1001.25 1001.83 1002.45 1003.07 1003.70 1004.30 1004.87 1005.40 1005.89 1006.32 1006.71 1007.05 1007.36 1007.62 1007.86 1008.08 1008.29 1008.49 1008.69 1008.91 1009.15 1009.41 1009.69 1009.98 1010.30 1010.61 1010.92 1011.21 1011.47 1011.70
998.73 998.67 998.61 998.56 998.52 998.52 998.55 998.63 998.78 998.98 999.26 999.61 1000.02 1000.48 1001.00 1001.55 1002.12 1002.70 1003.28 1003.85 1004.40 1004.92 1005.41 1005.87 1006.28 1006.66 1007.00 1007.30 1007.56 1007.80 1008.01 1008.21 1008.42 1008.62 1008.85 1009.10 1009.37 1009.67 1009.99 1010.31 1010.63 1010.94 1011.21 1011.44
998.43 998.28 998.15 998.06 998.00 998.00 998.05 998.16 998.35 998.59 998.90 999.27 999.68 1000.14 1000.63 1001.14 1001.68 1002.22 1002.76 1003.31 1003.84 1004.37 1004.88 1005.36 1005.81 1006.23 1006.60 1006.93 1007.22 1007.47 1007.69 1007.89 1008.08 1008.27 1008.48 1008.70 1008.96 1009.25 1009.56 1009.88 1010.20 1010.50 1010.78 1011.02
998.06 997.84 997.67 997.54 997.48 997.48 997.56 997.70 997.92 998.20 998.53 998.91 999.32 999.76 1000.22 1000.70 1001.20 1001.71 1002.22 1002.75 1003.28 1003.81 1004.34 1004.85 1005.33 1005.78 1006.19 1006.55 1006.86 1007.12 1007.33 1007.52 1007.68 1007.85 1008.02 1008.22 1008.45 1008.71 1009.01 1009.31 1009.63 1009.94 1010.21 1010.46
997.68 997.43 997.23 997.10 997.05 997.08 997.18 997.36 997.61 997.91 998.25 998.63 999.03 999.45 999.88 1000.32 1000.78 1001.25 1001.74 1002.25 1002.77 1003.31 1003.84 1004.38 1004.88 1005.36 1005.79 1006.16 1006.47 1006.73 1006.93 1007.09 1007.23 1007.36 1007.50 1007.67 1007.87 1008.10 1008.38 1008.67 1008.98 1009.29 1009.58 1009.84
997.39 997.14 996.97 996.87 996.85 996.91 997.05 997.26 997.53 997.84 998.18 998.54 998.91 999.30 999.69 1000.09 1000.50 1000.93 1001.39 1001.87 1002.38 1002.90 1003.44 1003.98 1004.49 1004.97 1005.41 1005.78 1006.08 1006.32 1006.50 1006.64 1006.75 1006.84 1006.95 1007.08 1007.25 1007.47 1007.73 1008.02 1008.33 1008.65 1008.96 1009.25
997.30 997.11 996.99 996.94 996.97 997.07 997.25 997.47 997.75 998.05 998.37 998.70 999.04 999.37 999.71 1000.05 1000.41 1000.80 1001.21 1001.65 1002.13 1002.63 1003.15 1003.67 1004.17 1004.64 1005.06 1005.41 1005.70 1005.92 1006.08 1006.19 1006.27 1006.34 1006.42 1006.53 1006.68 1006.89 1007.14 1007.44 1007.76 1008.10 1008.44 1008.77
Thickness
5807 5817 5819 5816 5815 5818 5814 5809 5798 5801 5800 5803 5805 5806 5810 5810 5809 5807 5804 5804 5802 5800 5796 5793 5793 5791 5789 5786 5784 5781 5776 5772 5769 5768 5766 5763 5760 5758 5756 5755 5754 5752 5750 5749
5795 5807 5811 5808 5814 5813 5812 5812 5808 5805 5799 5810 5811 5807 5804 5804 5803 5799 5798 5797 5797 5795 5792 5789 5786 5784 5782 5780 5778 5775 5771 5768 5765 5763 5760 5757 5755 5753 5750 5749 5748 5747 5744 5743
5777 5796 5797 5788 5806 5810 5809 5812 5808 5795 5796 5806 5800 5795 5796 5798 5797 5795 5794 5793 5792 5790 5787 5785 5783 5780 5776 5775 5773 5769 5765 5762 5760 5758 5755 5752 5750 5747 5744 5742 5741 5739 5738 5737
5774 5775 5756 5792 5820 5817 5809 5808 5809 5803 5802 5801 5797 5797 5799 5797 5792 5789 5789 5787 5786 5785 5782 5781 5779 5776 5773 5770 5767 5763 5759 5756 5754 5751 5748 5746 5743 5740 5738 5737 5735 5733 5732 5731
5766 5759 5768 5791 5806 5807 5797 5792 5804 5799 5797 5798 5800 5793 5788 5792 5790 5786 5785 5784 5782 5781 5778 5775 5772 5770 5766 5762 5759 5756 5753 5750 5748 5745 5742 5739 5736 5734 5733 5730 5729 5728 5727 5726
5758 5746 5746 5773 5798 5808 5798 5775 5794 5795 5789 5789 5786 5767 5765 5779 5780 5779 5779 5777 5775 5773 5770 5766 5764 5762 5758 5754 5751 5748 5746 5745 5742 5739 5736 5733 5731 5729 5727 5725 5723 5723 5721 5720
5751 5746 5758 5778 5791 5791 5761 5759 5785 5787 5782 5779 5771 5767 5770 5774 5771 5770 5769 5767 5765 5762 5758 5756 5755 5752 5747 5745 5743 5742 5741 5739 5736 5733 5730 5728 5726 5724 5721 5719 5717 5716 5714 5714
5748 5739 5742 5775 5776 5763 5761 5775 5778 5777 5775 5772 5769 5768 5766 5764 5762 5760 5758 5756 5754 5750 5747 5747 5745 5742 5738 5736 5737 5736 5734 5731 5728 5726 5724 5723 5719 5716 5714 5712 5709 5708 5706 5705
5747 5744 5760 5770 5767 5769 5771 5767 5767 5767 5768 5766 5760 5757 5756 5754 5752 5750 5748 5746 5745 5741 5738 5737 5736 5733 5729 5728 5728 5726 5724 5721 5720 5718 5717 5715 5712 5709 5707 5705 5702 5701 5699 5698
5742 5748 5756 5763 5764 5764 5764 5760 5761 5761 5761 5758 5752 5750 5747 5744 5742 5739 5737 5736 5735 5732 5728 5726 5725 5724 5722 5721 5719 5716 5714 5712 5711 5709 5708 5707 5704 5703 5700 5698 5695 5693 5692 5691
5732 5741 5747 5749 5751 5752 5754 5755 5754 5755 5754 5751 5747 5742 5738 5734 5732 5730 5727 5727 5725 5721 5719 5717 5716 5715 5714 5713 5711 5707 5704 5702 5701 5701 5699 5697 5696 5694 5693 5691 5689 5685 5685 5684
5718 5729 5730 5731 5740 5743 5742 5742 5742 5743 5741 5742 5739 5733 5729 5725 5723 5721 5718 5717 5715 5713 5711 5709 5708 5707 5706 5705 5702 5698 5695 5693 5693 5692 5690 5688 5687 5685 5684 5683 5681 5680 5678 5676
5720 5727 5728 5731 5733 5735 5733 5734 5735 5734 5731 5729 5728 5725 5721 5717 5714 5712 5710 5708 5706 5705 5703 5701 5700 5699 5698 5697 5694 5690 5687 5685 5685 5684 5682 5680 5679 5676 5674 5673 5672 5671 5669 5667
5717 5717 5715 5719 5722 5726 5727 5727 5726 5725 5723 5721 5719 5715 5712 5709 5706 5703 5701 5701 5700 5698 5696 5694 5692 5690 5690 5689 5686 5683 5682 5680 5678 5676 5674 5673 5671 5669 5667 5665 5663 5663 5661 5658
5707 5710 5711 5715 5716 5716 5718 5717 5714 5712 5711 5711 5710 5707 5704 5700 5697 5696 5695 5695 5694 5691 5688 5686 5684 5682 5682 5680 5678 5675 5674 5672 5670 5669 5667 5666 5665 5663 5660 5659 5657 5655 5654 5651
5701 5705 5707 5706 5705 5705 5706 5705 5701 5700 5700 5700 5699 5697 5696 5694 5691 5689 5688 5687 5683 5681 5679 5677 5675 5675 5674 5672 5670 5667 5666 5663 5661 5660 5659 5657 5655 5653 5652 5650 5649 5647 5645 5644
5690 5690 5693 5694 5696 5696 5696 5697 5695 5693 5691 5690 5690 5690 5688 5686 5683 5681 5679 5678 5676 5674 5673 5670 5668 5668 5666 5664 5662 5660 5659 5657 5653 5652 5650 5648 5646 5644 5642 5641 5639 5638 5637 5636
5688 5688 5690 5690 5689 5688 5688 5688 5688 5686 5683 5684 5685 5683 5680 5676 5674 5672 5671 5670 5668 5665 5664 5663 5662 5660 5658 5656 5654 5652 5651 5648 5646 5643 5641 5639 5637 5636 5634 5633 5632 5629 5628 5626
5681 5681 5683 5683 5683 5682 5681 5681 5681 5680 5678 5678 5676 5674 5671 5669 5667 5666 5665 5662 5658 5655 5655 5656 5653 5651 5650 5648 5644 5643 5643 5642 5639 5636 5633 5630 5628 5627 5625 5624 5623 5621 5619 5617
5674 5674 5675 5675 5676 5675 5674 5674 5673 5672 5671 5670 5667 5665 5662 5661 5660 5658 5656 5653 5652 5651 5650 5648 5646 5644 5642 5639 5635 5635 5635 5634 5632 5630 5626 5624 5621 5619 5618 5616 5615 5613 5610 5608
5666 5666 5666 5667 5668 5669 5669 5668 5666 5664 5664 5662 5659 5656 5655 5654 5653 5650 5648 5647 5647 5646 5644 5641 5639 5637 5634 5630 5627 5628 5628 5626 5624 5622 5620 5617 5615 5613 5611 5609 5607 5605 5602 5600
5657 5658 5657 5659 5660 5660 5662 5662 5660 5658 5656 5654 5652 5651 5649 5647 5647 5645 5644 5643 5643 5639 5637 5636 5634 5629 5626 5623 5622 5622 5621 5619 5617 5615 5613 5611 5609 5607 5604 5602 5600 5598 5596 5594
5649 5650 5650 5649 5650 5652 5654 5653 5652 5651 5649 5647 5646 5644 5642 5641 5640 5638 5637 5639 5638 5632 5631 5631 5626 5622 5618 5618 5618 5617 5615 5613 5611 5609 5606 5604 5602 5599 5597 5595 5593 5590 5588 5586
5641 5642 5642 5643 5644 5644 5643 5645 5645 5645 5644 5643 5642 5640 5637 5636 5636 5636 5635 5632 5629 5626 5626 5623 5618 5615 5612 5614 5614 5612 5610 5608 5606 5603 5601 5599 5596 5594 5591 5588 5586 5583 5581 5579
5636 5636 5636 5636 5635 5636 5637 5638 5639 5639 5638 5638 5638 5636 5636 5634 5632 5631 5629 5628 5623 5620 5620 5616 5612 5610 5609 5610 5608 5607 5605 5602 5600 5597 5594 5592 5590 5587 5585 5581 5578 5576 5574 5571
5631 5630 5629 5629 5630 5630 5632 5633 5632 5631 5632 5632 5632 5632 5631 5630 5627 5625 5624 5622 5619 5615 5614 5611 5609 5606 5605 5604 5602 5600 5599 5596 5595 5593 5590 5587 5584 5581 5578 5575 5572 5569 5567 5565
5626 5626 5625 5625 5625 5626 5627 5627 5626 5625 5626 5625 5625 5625 5624 5623 5621 5619 5618 5616 5613 5611 5609 5607 5604 5602 5600 5598 5596 5595 5593 5591 5589 5586 5583 5580 5578 5575 5573 5570 5567 5564 5561 5559